Wind_Speed
24 23 22 21 21 22 22 24 24 21 19 25 29 30 29 31 34 36 38 37 37 39 39 38 37 37 36 36 36 37 38 38 39 38 38 37 36 35 35 35 36 37 38 40
25 22 22 25 27 28 28 30 28 24 22 26 32 32 30 31 33 36 40 44 42 39 37 36 37 39 40 39 39 40 41 41 41 41 40 38 37 36 37 38 39 40 41 42
27 22 28 31 30 29 28 28 28 28 25 27 32 36 35 34 37 41 44 46 48 47 44 41 42 42 43 43 42 42 42 42 42 41 40 39 39 38 38 39 40 42 43 44
29 29 33 32 30 28 26 22 24 27 27 28 28 31 31 30 37 43 47 48 49 49 47 46 45 43 44 44 44 43 43 42 41 41 40 40 40 40 41 42 43 44 45 46
25 29 32 32 29 28 26 26 28 30 32 34 32 31 28 24 30 38 42 43 43 45 46 45 44 43 43 44 44 44 43 41 40 40 39 40 40 41 42 44 45 46 47 48
18 23 25 27 28 30 31 33 36 36 35 37 35 34 34 29 32 40 44 42 41 41 41 40 41 42 42 43 43 43 42 41 40 40 40 41 42 43 45 46 47 48 49 49
10 13 15 18 21 25 28 31 34 35 35 38 32 31 32 35 41 46 46 45 42 39 35 35 37 39 41 41 41 41 42 42 42 42 43 43 45 46 47 48 49 49 49 49
10 11 13 16 19 20 22 27 32 34 33 32 28 32 37 42 46 48 50 50 50 49 46 43 42 41 42 42 42 42 43 44 45 45 46 47 48 48 49 49 50 49 48 47
15 15 17 20 22 23 24 26 29 35 38 39 38 38 41 42 45 49 52 52 52 53 52 50 48 46 46 45 45 45 46 47 48 48 49 49 49 49 49 49 48 47 45 43
17 19 19 23 25 27 29 30 32 36 40 41 40 37 43 47 47 46 47 52 53 54 52 51 50 49 48 48 48 48 49 50 50 50 50 49 49 48 48 47 44 42 41 39
16 18 17 21 26 28 31 32 34 37 40 42 42 39 43 46 47 49 48 46 48 49 48 48 47 46 47 47 48 49 49 49 49 49 48 47 46 45 43 41 40 38 38 37
15 16 17 19 22 28 32 34 36 38 40 42 42 41 41 42 47 50 50 49 46 42 41 41 41 41 42 42 43 44 45 45 45 44 43 42 41 39 38 37 37 37 36 34
14 15 16 16 19 25 29 33 37 41 42 42 41 40 38 39 42 44 45 44 42 38 37 36 36 37 38 39 39 40 41 42 41 40 39 38 37 37 36 36 36 36 35 33
14 16 17 18 19 22 27 31 35 37 41 43 41 39 38 40 40 39 38 36 34 33 34 34 35 35 36 37 38 39 39 39 40 39 39 38 37 37 36 36 35 35 35 34
15 16 18 19 19 20 22 24 27 31 34 37 36 36 35 34 35 36 35 33 31 29 30 32 34 35 36 37 38 39 39 39 39 39 38 38 37 37 36 36 36 37 37 37
17 17 19 19 20 21 22 22 24 26 29 31 32 31 32 34 33 33 34 34 32 30 29 30 32 33 34 35 37 38 38 38 38 38 38 37 36 36 36 37 37 38 39 40
18 18 19 19 20 20 19 21 22 23 23 25 26 25 26 28 29 29 29 29 28 27 27 28 30 32 33 34 34 36 37 37 37 38 37 37 37 36 37 37 38 39 40 41
18 18 18 18 19 19 22 20 20 20 20 19 19 19 19 21 22 23 23 24 24 24 25 27 28 29 30 32 32 33 35 35 35 36 36 35 35 35 36 37 38 39 40 41
18 17 17 17 17 19 21 20 18 17 17 16 16 16 16 17 18 20 21 21 22 22 23 24 24 25 26 28 29 30 31 31 32 32 32 32 32 33 34 34 35 36 37 38
18 18 17 17 17 18 19 18 18 17 16 16 16 16 16 17 18 19 19 20 21 22 21 21 21 22 22 23 25 26 26 26 27 27 27 28 28 29 29 30 32 33 34 35
22 19 18 17 17 17 18 18 17 17 17 17 17 16 17 17 17 18 18 18 19 20 19 19 19 19 19 19 19 20 21 22 22 22 22 22 24 25 27 28 30 31 32 32
24 22 20 19 18 19 17 17 16 16 16 16 16 16 16 15 15 15 16 16 17 16 16 16 16 17 17 17 17 18 18 18 18 18 19 21 23 24 26 27 28 29 29 29
25 23 22 21 21 20 18 18 17 16 15 14 14 14 14 14 13 13 13 13 13 13 12 12 13 13 14 14 15 15 15 15 16 17 19 21 22 23 24 24 25 25 26 26
27 27 25 22 21 22 21 19 18 17 16 14 13 12 12 12 12 11 11 11 10 9 9 9 9 9 10 11 12 13 14 15 16 17 18 19 20 21 22 23 24 25 26 27
26 29 27 23 22 23 22 21 20 19 17 16 15 14 13 12 12 11 11 10 9 8 7 6 6 7 7 8 9 11 12 13 14 15 17 18 20 21 22 24 25 26 27 28
23 27 29 27 25 25 23 23 22 20 19 18 18 17 16 15 13 12 11 10 9 8 7 7 6 6 6 7 8 9 11 12 14 15 16 18 19 20 22 24 25 27 28 29
Wind_Direction
235 237 238 239 242 240 227 232 233 241 239 242 250 247 237 237 244 252 256 254 253 257 254 254 257 260 264 268 271 273 274 276 279 282 283 285 286 287 287 288 289 292 296 299
235 237 239 234 233 235 235 236 233 226 225 232 240 241 232 234 244 250 254 256 259 257 254 257 259 262 266 268 269 270 272 274 277 279 281 282 283 283 283 285 287 290 293 295
231 228 235 236 239 244 246 248 245 239 234 240 248 251 245 236 240 248 251 255 259 261 264 266 265 265 265 266 268 269 272 274 276 277 278 279 280 281 282 283 286 288 290 292
233 230 239 242 243 246 248 252 252 245 239 241 249 260 261 248 242 247 252 256 261 263 263 264 265 265 266 267 268 269 271 273 273 274 275 276 278 280 281 283 284 286 289 291
238 237 242 247 248 245 242 238 239 241 242 241 241 249 254 254 256 257 258 260 261 261 261 261 262 264 265 265 266 268 269 270 270 271 273 274 276 278 280 283 285 287 289 291
244 248 252 254 252 250 248 247 247 249 252 252 251 250 253 247 249 251 253 259 261 260 260 261 261 262 263 263 264 265 267 268 269 271 272 274 277 279 281 283 285 287 289 291
257 257 260 262 261 258 257 258 259 258 258 260 263 262 260 254 250 252 257 260 258 258 261 265 265 265 264 264 265 265 266 267 269 271 273 276 278 280 282 284 285 287 289 290
267 259 259 258 259 260 259 259 260 260 257 256 254 252 248 248 250 251 254 257 260 262 266 267 268 267 266 265 265 265 266 268 270 272 274 276 278 280 281 282 284 286 287 288
280 268 262 261 258 259 263 265 265 264 261 256 247 247 252 251 252 251 249 251 256 260 264 266 266 265 264 264 265 266 267 268 270 272 274 275 277 278 279 280 282 284 285 286
283 280 269 266 264 262 264 264 265 266 267 266 263 255 255 256 256 256 251 247 250 256 260 263 264 263 262 262 263 264 266 267 269 271 272 274 275 276 277 278 280 282 283 284
289 290 286 276 272 272 269 266 263 264 266 268 268 259 252 254 256 259 260 259 254 253 257 261 263 262 261 260 261 262 264 267 268 270 271 272 273 274 275 276 277 280 282 284
298 303 303 295 282 277 273 268 265 264 264 265 265 261 259 258 259 261 263 263 265 264 263 263 263 261 261 260 260 261 263 265 267 268 269 270 271 272 273 273 275 279 281 282
312 316 316 308 291 287 281 277 273 269 268 266 265 264 263 263 263 263 265 267 267 266 265 263 262 262 261 260 259 259 261 262 264 266 268 269 270 271 272 273 275 278 278 279
314 319 321 317 302 290 286 284 281 279 276 272 272 271 266 264 265 267 267 267 268 268 266 262 260 260 261 260 259 259 260 261 262 264 266 268 269 271 272 272 273 275 276 277
314 320 323 324 318 310 302 294 288 285 287 281 278 274 272 270 268 268 272 275 277 277 273 266 261 259 259 259 259 259 259 261 262 263 265 266 268 270 270 271 272 273 274 275
312 317 322 325 325 322 315 309 300 291 289 285 280 278 275 275 275 275 278 280 281 279 278 273 267 263 262 262 261 260 260 260 261 263 264 265 267 269 270 272 273 274 275 275
304 313 320 326 328 327 325 319 313 305 300 293 285 279 271 274 277 278 279 277 276 275 273 272 269 265 263 262 263 262 261 260 260 261 263 264 266 269 271 274 275 276 277 277
297 306 315 323 329 328 327 328 321 314 312 307 297 288 284 283 282 280 277 274 273 272 270 269 269 268 265 264 265 264 262 260 260 261 262 265 268 271 274 276 277 278 278 279
293 301 310 319 324 325 326 332 327 320 314 310 305 297 290 286 282 280 278 276 275 273 271 271 271 269 268 265 265 266 263 262 263 264 265 268 271 274 276 278 279 281 282 282
288 294 301 309 315 319 324 333 329 324 318 315 311 306 298 294 290 287 285 283 281 278 276 274 272 271 269 267 266 265 263 264 264 265 267 270 272 275 278 281 283 284 285 285
289 290 294 301 307 309 319 328 329 327 328 322 318 315 310 305 301 296 293 291 287 284 281 279 276 272 268 266 266 265 264 266 267 268 271 273 277 280 283 285 287 288 288 288
280 284 288 292 295 292 312 316 319 322 322 322 321 320 318 315 311 305 301 298 294 291 288 283 279 274 269 266 265 265 267 268 269 271 274 279 283 285 288 289 290 290 290 289
270 272 276 279 285 292 297 301 306 311 315 318 321 324 326 328 328 323 316 312 307 301 296 291 284 279 273 269 268 268 269 271 273 276 280 283 285 287 288 290 292 292 292 291
265 267 267 270 275 281 286 289 293 297 302 307 311 317 324 332 338 340 339 335 331 325 313 303 294 287 280 276 273 271 273 276 278 281 283 284 286 288 290 291 292 293 293 291
264 264 266 266 268 273 277 281 283 287 291 294 297 301 308 315 323 330 336 339 340 339 336 327 314 303 294 288 283 280 279 280 282 283 285 287 289 291 293 294 294 294 294 293
273 265 265 265 267 269 270 274 275 278 281 285 288 292 295 299 303 308 315 322 326 328 327 323 318 311 304 297 291 287 284 284 286 288 290 292 294 296 297 298 298 297 297 296
Height
5845 5848 5850 5852 5854 5857 5859 5862 5865 5869 5872 5873 5871 5873 5875 5875 5874 5872 5870 5869 5870 5873 5871 5875 5878 5881 5883 5885 5886 5887 5886 5886 5886 5886 5885 5884 5885 5885 5885 5885 5885 5885 5884 5883
5842 5845 5847 5847 5848 5850 5853 5855 5858 5862 5865 5866 5865 5865 5868 5869 5868 5867 5866 5865 5866 5865 5860 5865 5870 5874 5876 5878 5879 5880 5880 5879 5879 5879 5878 5878 5878 5878 5878 5878 5878 5878 5877 5876
5837 5840 5838 5840 5843 5846 5849 5851 5853 5856 5858 5859 5858 5857 5860 5864 5862 5861 5861 5860 5861 5862 5860 5860 5861 5866 5869 5870 5871 5872 5872 5872 5871 5871 5871 5871 5871 5871 5871 5871 5871 5871 5870 5869
5831 5833 5833 5836 5839 5842 5844 5847 5848 5849 5850 5852 5854 5852 5853 5856 5855 5854 5855 5856 5855 5855 5855 5856 5855 5857 5860 5861 5862 5863 5864 5864 5864 5863 5864 5863 5863 5863 5863 5863 5863 5863 5862 5861
5826 5827 5829 5832 5835 5836 5838 5839 5839 5840 5841 5843 5845 5846 5848 5851 5849 5847 5846 5847 5847 5846 5847 5848 5849 5849 5851 5852 5853 5854 5855 5855 5855 5855 5856 5855 5856 5855 5855 5855 5854 5854 5853 5853
5822 5824 5826 5827 5828 5829 5831 5832 5832 5833 5834 5835 5838 5839 5840 5843 5842 5837 5834 5835 5836 5837 5837 5839 5841 5841 5843 5844 5845 5845 5846 5846 5847 5847 5847 5847 5847 5847 5847 5846 5846 5845 5844 5843
5820 5821 5822 5823 5823 5825 5826 5827 5827 5827 5827 5827 5832 5832 5834 5831 5829 5827 5827 5827 5826 5826 5827 5831 5833 5834 5835 5835 5836 5837 5838 5838 5838 5838 5838 5838 5838 5838 5838 5837 5836 5836 5834 5833
5817 5819 5818 5818 5819 5819 5819 5820 5820 5819 5820 5822 5825 5823 5820 5816 5816 5817 5817 5818 5818 5819 5820 5823 5825 5825 5826 5827 5828 5828 5829 5828 5829 5829 5829 5829 5829 5829 5829 5828 5827 5826 5825 5823
5814 5814 5815 5814 5814 5814 5813 5812 5813 5811 5808 5808 5811 5812 5809 5807 5805 5804 5804 5805 5806 5808 5809 5812 5814 5815 5817 5818 5818 5818 5819 5819 5819 5819 5819 5820 5820 5819 5819 5818 5817 5816 5815 5814
5809 5809 5809 5808 5808 5808 5807 5805 5804 5801 5798 5797 5800 5803 5802 5797 5796 5793 5788 5789 5792 5794 5796 5799 5801 5804 5805 5807 5807 5808 5808 5808 5809 5809 5809 5809 5809 5809 5808 5808 5807 5806 5805 5804
5805 5804 5804 5802 5800 5799 5798 5797 5794 5792 5790 5789 5788 5792 5788 5787 5786 5784 5781 5779 5780 5782 5784 5787 5790 5791 5793 5795 5796 5796 5797 5797 5798 5798 5799 5799 5799 5799 5798 5798 5798 5797 5796 5796
5801 5800 5797 5796 5794 5790 5788 5786 5785 5783 5780 5778 5776 5779 5776 5777 5776 5774 5771 5771 5772 5772 5775 5777 5778 5780 5782 5784 5785 5786 5786 5787 5787 5788 5788 5789 5789 5789 5789 5789 5789 5789 5788 5787
5798 5796 5793 5790 5789 5784 5780 5777 5774 5771 5768 5766 5764 5766 5764 5764 5764 5763 5762 5761 5762 5763 5765 5767 5769 5770 5772 5774 5775 5776 5777 5777 5778 5779 5779 5780 5780 5780 5781 5781 5781 5780 5780 5779
5794 5792 5789 5786 5781 5777 5773 5769 5766 5762 5758 5755 5754 5753 5753 5752 5752 5752 5752 5752 5753 5755 5757 5759 5760 5761 5763 5764 5765 5767 5768 5768 5769 5770 5770 5771 5771 5772 5772 5772 5772 5772 5771 5771
5791 5788 5783 5779 5775 5770 5766 5763 5759 5754 5750 5747 5745 5744 5743 5742 5743 5743 5743 5744 5745 5747 5748 5750 5751 5752 5753 5755 5756 5757 5759 5760 5760 5761 5761 5762 5762 5762 5763 5763 5763 5763 5763 5762
5786 5784 5779 5775 5769 5765 5760 5756 5752 5747 5743 5739 5737 5735 5735 5735 5734 5734 5735 5736 5738 5739 5740 5742 5742 5743 5745 5746 5747 5748 5749 5750 5751 5752 5752 5753 5753 5754 5754 5754 5754 5754 5753 5753
5782 5779 5775 5770 5765 5761 5756 5752 5746 5741 5737 5733 5730 5729 5728 5727 5727 5727 5728 5728 5729 5731 5732 5733 5734 5735 5736 5737 5738 5739 5740 5741 5742 5743 5744 5744 5745 5745 5745 5745 5744 5744 5743 5742
5778 5774 5771 5766 5762 5757 5755 5747 5743 5738 5734 5730 5726 5724 5723 5722 5722 5722 5722 5722 5722 5723 5724 5725 5726 5726 5727 5728 5730 5730 5731 5732 5733 5734 5735 5736 5736 5736 5736 5735 5735 5734 5733 5732
5772 5770 5766 5763 5758 5755 5750 5745 5740 5736 5732 5729 5725 5723 5721 5720 5719 5718 5718 5717 5717 5717 5717 5717 5718 5718 5719 5720 5721 5722 5723 5723 5725 5726 5727 5727 5728 5728 5727 5726 5725 5724 5723 5722
5767 5765 5762 5759 5755 5752 5749 5743 5738 5735 5731 5728 5724 5722 5720 5718 5716 5715 5714 5712 5711 5711 5710 5710 5711 5711 5711 5712 5713 5715 5716 5716 5717 5718 5719 5719 5720 5720 5719 5718 5717 5716 5714 5713
5760 5759 5757 5754 5752 5748 5745 5740 5737 5734 5732 5726 5722 5720 5717 5715 5713 5712 5710 5708 5706 5705 5704 5704 5704 5705 5705 5706 5707 5708 5709 5710 5711 5712 5712 5712 5712 5712 5711 5710 5709 5708 5706 5704
5755 5754 5752 5750 5748 5746 5741 5738 5736 5733 5728 5725 5721 5718 5715 5713 5710 5708 5706 5704 5702 5701 5700 5699 5699 5699 5700 5701 5702 5702 5703 5704 5705 5706 5706 5706 5706 5705 5705 5703 5702 5700 5699 5697
5747 5748 5746 5745 5745 5741 5738 5735 5733 5730 5726 5723 5720 5717 5714 5711 5708 5706 5703 5701 5699 5698 5697 5696 5696 5696 5696 5697 5697 5698 5699 5700 5700 5701 5701 5701 5700 5699 5698 5697 5696 5694 5692 5690
5739 5738 5738 5738 5737 5735 5733 5731 5729 5727 5724 5721 5719 5716 5713 5710 5707 5705 5702 5700 5698 5696 5695 5694 5693 5693 5693 5693 5694 5695 5695 5696 5696 5696 5696 5696 5695 5694 5693 5691 5690 5688 5686 5684
5731 5730 5729 5730 5731 5729 5728 5726 5724 5722 5720 5718 5716 5714 5711 5709 5707 5704 5702 5699 5697 5695 5694 5693 5692 5691 5691 5691 5691 5692 5692 5692 5692 5692 5692 5691 5690 5689 5688 5686 5684 5682 5680 5678
5723 5722 5721 5722 5722 5721 5721 5719 5718 5717 5715 5714 5712 5710 5708 5707 5705 5703 5701 5699 5697 5695 5694 5692 5691 5690 5689 5689 5689 5689 5689 5689 5689 5688 5688 5687 5686 5684 5683 5681 5678 5676 5673 5671